Date String (YYYY-MM-DD hh:mm:ss) UTC,Instrument flags,Ambient pressure (hPa),Sample flow (lpm),Bypass flow (lpm),Sample temperature (°C),Ambient temperature (°C),ASC tube jacket temperature (°C),LED temperature (°C),Box temperature (°C),Sample RH (%),Span deviation,Mass concentration (μg/m³),Mass concentration (μg/m³),Mass concentration (μg/m³)
DateTimeUTC,F1_M11,P_M11,Q1_M11,Q2_M11,T1_M11,T2_M11,T3_M11,T4_M11,T5_M11,U1_M11,ZSPAN_M11,X0_M11,X2_M11,X1_M11
2023-02-04 14:00:00,,0824.9,5.02,0.00,21.6,19.9,00.0,30.6,23.3,05.6,0000.0,0003.58,0001.00,0000.42
2023-02-04 14:01:00,,0824.9,5.01,0.00,21.6,19.9,00.0,30.6,23.3,05.8,0000.0,0003.57,0001.02,0000.42
2023-02-04 14:02:00,,0824.9,4.99,0.00,21.6,19.9,00.0,30.6,23.2,05.8,0000.0,0003.41,0000.99,0000.43
2023-02-04 14:03:00,,0825.0,4.99,0.00,21.6,20.0,00.0,30.6,23.2,06.0,0000.0,0003.67,0000.99,0000.43
2023-02-04 14:04:00,,0825.0,4.98,0.00,21.6,20.0,00.0,30.6,23.2,05.9,0000.0,0003.91,0000.98,0000.43
2023-02-04 14:05:00,,0824.9,4.98,0.00,21.6,20.0,00.0,30.6,23.2,06.0,0000.0,0003.10,0000.94,0000.43
2023-02-04 14:06:00,,0824.9,5.02,0.00,21.6,20.1,00.0,30.5,23.2,05.9,0000.0,0002.55,0000.94,0000.42
2023-02-04 14:07:00,,0824.9,5.02,0.00,21.5,19.9,00.0,30.5,23.2,05.9,0000.0,0004.05,0000.93,0000.42
2023-02-04 14:08:00,,0824.9,5.01,0.00,21.5,19.8,00.0,30.5,23.2,06.0,0000.0,0005.34,0000.92,0000.42
2023-02-04 14:09:00,,0824.9,5.00,0.00,21.5,20.4,00.0,30.5,23.3,06.0,0000.0,0005.57,0000.90,0000.42
2023-02-04 14:10:00,,0824.9,5.00,0.00,21.6,21.7,00.0,30.4,23.6,05.9,0000.0,0005.88,0000.89,0000.42
2023-02-04 14:11:00,,0824.9,4.98,0.00,21.8,22.5,00.0,30.5,23.8,06.1,0000.0,0005.90,0000.91,0000.43
2023-02-04 14:12:00,,0824.9,4.97,0.00,21.8,22.0,00.0,30.5,23.8,06.3,0000.0,0005.83,0000.89,0000.43
2023-02-04 14:13:00,,0824.9,5.00,0.00,21.8,21.3,00.0,30.6,23.6,05.9,0000.0,0005.82,0000.89,0000.43
2023-02-04 14:14:00,,0824.9,5.03,0.00,21.7,20.8,00.0,30.6,23.4,06.0,0000.0,0005.55,0000.87,0000.44
2023-02-04 14:15:00,,0824.9,4.98,0.00,21.7,20.4,00.0,30.6,23.4,06.4,0000.0,0005.81,0000.86,0000.44
2023-02-04 14:16:00,,0824.9,5.02,0.00,21.7,20.3,00.0,30.6,23.3,06.4,0000.0,0006.00,0000.87,0000.45
2023-02-04 14:17:00,,0824.9,4.99,0.00,21.6,20.2,00.0,30.6,23.3,06.4,0000.0,0006.42,0000.87,0000.46
2023-02-04 14:18:00,,0824.9,5.00,0.00,21.6,20.1,00.0,30.6,23.3,06.6,0000.0,0005.51,0000.89,0000.47
2023-02-04 14:19:00,,0824.9,4.98,0.00,21.6,20.0,00.0,30.6,23.2,06.5,0000.0,0003.85,0000.86,0000.48
2023-02-04 14:20:00,,0825.0,4.98,0.00,21.6,19.9,00.0,30.6,23.2,06.5,0000.0,0003.62,0000.87,0000.49
2023-02-04 14:21:00,,0825.0,5.00,0.00,21.6,19.9,00.0,30.6,23.2,07.2,0000.0,0003.14,0000.87,0000.48
2023-02-04 14:22:00,,0825.1,5.01,0.00,21.6,20.0,00.0,30.5,23.2,06.9,0000.0,0003.09,0000.84,0000.47
2023-02-04 14:23:00,,0825.0,5.02,0.00,21.5,20.0,00.0,30.5,23.1,06.6,0000.0,0003.15,0000.85,0000.46
2023-02-04 14:24:00,,0825.0,4.99,0.00,21.5,19.9,00.0,30.5,23.1,06.8,0000.0,0003.62,0000.85,0000.46
2023-02-04 14:25:00,,0825.0,4.99,0.00,21.5,20.0,00.0,30.5,23.1,06.7,0000.0,0004.37,0000.87,0000.45
2023-02-04 14:26:00,,0825.0,5.01,0.00,21.5,20.0,00.0,30.5,23.1,06.9,0000.0,0003.93,0000.89,0000.45
2023-02-04 14:27:00,,0825.0,4.99,0.00,21.5,20.0,00.0,30.5,23.1,06.8,0000.0,0003.87,0000.87,0000.45
2023-02-04 14:28:00,,0824.9,4.98,0.00,21.5,20.0,00.0,30.5,23.1,06.9,0000.0,0004.14,0000.85,0000.43
2023-02-04 14:29:00,,0825.0,4.98,0.00,21.5,20.0,00.0,30.5,23.1,06.7,0000.0,0003.94,0000.84,0000.43
2023-02-04 14:30:00,,0825.1,4.98,0.00,21.5,20.3,00.0,30.4,23.2,06.5,0000.0,0003.98,0000.85,0000.42
2023-02-04 14:31:00,,0825.2,5.02,0.00,21.6,21.4,00.0,30.4,23.5,06.5,0000.0,0003.98,0000.85,0000.42
2023-02-04 14:32:00,,0825.3,5.02,0.00,21.7,22.4,00.0,30.4,23.7,06.7,0000.0,0003.97,0000.84,0000.42
2023-02-04 14:33:00,,0825.3,5.03,0.00,21.8,22.4,00.0,30.5,23.8,06.9,0000.0,0004.06,0000.88,0000.43
2023-02-04 14:34:00,,0825.2,4.97,0.00,21.8,21.8,00.0,30.5,23.7,06.8,0000.0,0004.20,0000.90,0000.43
2023-02-04 14:35:00,,0825.2,4.97,0.00,21.8,21.3,00.0,30.5,23.6,06.6,0000.0,0003.83,0000.93,0000.42
2023-02-04 14:36:00,,0825.2,5.00,0.00,21.8,21.0,00.0,30.6,23.5,06.5,0000.0,0003.60,0000.97,0000.43
2023-02-04 14:37:00,,0825.4,5.02,0.00,21.8,20.8,00.0,30.6,23.5,06.9,0000.0,0004.51,0001.00,0000.43
2023-02-04 14:38:00,,0825.3,5.02,0.00,21.8,20.7,00.0,30.6,23.5,06.8,0000.0,0004.55,0001.01,0000.43
2023-02-04 14:39:00,,0825.4,5.01,0.00,21.8,20.6,00.0,30.6,23.5,06.7,0000.0,0003.81,0001.00,0000.43
2023-02-04 14:40:00,,0825.4,4.98,0.00,21.7,20.4,00.0,30.6,23.4,06.5,0000.0,0003.82,0000.99,0000.43
2023-02-04 14:41:00,,0825.4,4.96,0.00,21.7,20.3,00.0,30.6,23.4,06.8,0000.0,0003.75,0000.95,0000.42
2023-02-04 14:42:00,,0825.3,5.06,0.00,21.7,20.3,00.0,30.6,23.4,07.0,0000.0,0003.98,0000.93,0000.41
2023-02-04 14:43:00,,0825.3,5.00,0.00,21.7,20.3,00.0,30.6,23.4,06.6,0000.0,0004.18,0000.95,0000.40
2023-02-04 14:44:00,,0825.4,5.02,0.00,21.7,20.2,00.0,30.6,23.3,06.2,0000.0,0004.06,0000.90,0000.40
2023-02-04 14:45:00,,0825.3,5.01,0.00,21.6,20.1,00.0,30.6,23.3,06.4,0000.0,0003.82,0000.86,0000.40
2023-02-04 14:46:00,,0825.3,5.00,0.00,21.6,20.1,00.0,30.6,23.2,06.6,0000.0,0003.73,0000.82,0000.41
2023-02-04 14:47:00,,0825.3,4.98,0.00,21.6,20.1,00.0,30.6,23.3,06.3,0000.0,0003.21,0000.76,0000.40
2023-02-04 14:48:00,,0825.3,4.98,0.00,21.6,20.1,00.0,30.6,23.3,06.6,0000.0,0002.30,0000.74,0000.40
2023-02-04 14:49:00,,0825.3,5.00,0.00,21.6,20.1,00.0,30.6,23.3,07.0,0000.0,0002.02,0000.71,0000.39
2023-02-04 14:50:00,,0825.3,4.99,0.00,21.6,20.0,00.0,30.5,23.2,06.6,0000.0,0002.27,0000.77,0000.40
2023-02-04 14:51:00,,0825.4,4.99,0.00,21.5,19.8,00.0,30.5,23.2,06.3,0000.0,0002.36,0000.80,0000.40
2023-02-04 14:52:00,,0825.4,5.03,0.00,21.5,19.7,00.0,30.5,23.1,06.1,0000.0,0002.63,0000.82,0000.40
2023-02-04 14:53:00,,0825.4,5.01,0.00,21.4,19.6,00.0,30.5,23.1,06.6,0000.0,0003.36,0000.87,0000.40
2023-02-04 14:54:00,,0825.4,4.99,0.00,21.4,19.5,00.0,30.5,23.0,06.8,0000.0,0003.08,0000.85,0000.40
2023-02-04 14:55:00,,0825.4,4.96,0.00,21.4,19.8,00.0,30.4,23.0,06.4,0000.0,0003.18,0000.86,0000.41
2023-02-04 14:56:00,,0825.4,4.99,0.00,21.5,21.0,00.0,30.4,23.3,06.5,0000.0,0003.31,0000.86,0000.41
2023-02-04 14:57:00,,0825.4,4.99,0.00,21.6,22.2,00.0,30.4,23.6,06.8,0000.0,0004.09,0000.88,0000.41
2023-02-04 14:58:00,,0825.4,5.02,0.00,21.7,22.3,00.0,30.4,23.8,06.7,0000.0,0004.17,0000.88,0000.40
2023-02-04 14:59:00,,0825.4,5.01,0.00,21.7,21.7,00.0,30.5,23.6,06.2,0000.0,0004.08,0000.86,0000.41
